Regional Weather Roundup
Issued by NWS Pendleton, OR

Home | Current Version | Previous Version | Text Only | Print | Product List | Glossary On
Versions: 1 2 3 4 5 6 7 8 9 10 11 12 13 14 15 16 17 18 19 20 21 22 23 24 25 26 27 28 29 30 31 32 33 34 35 36 37 38 39 40 41 42 43 44 45 46 47 48 49 50
594
ASUS46 KPDT 252125
RWRPDT
PENDLETON REGIONAL WEATHER ROUNDUP
NATIONAL WEATHER SERVICE PENDLETON OREGON
200 PM PDT TUE APR 25 2017

NOTE: FAIR INDICATES FEW OR NO CLOUDS BELOW 12,000 FEET WITH NO
SIGNIFICANT WEATHER AND/OR OBSTRUCTIONS TO VISIBILITY.

# INDICATES UNOFFICIAL STATION AND DATA

WAZ520-252210-
EAST SLOPES OF WASHINGTON CASCADES

CITY            SKY/WX      TMP DP  RH  WIND    PRES   REMARKS
#CLE ELUM HS    N/A         53  32  45  W2      29.80F
#CLE ELUM LAKE  N/A         50  35  56  W1      29.84F
#GLENWOOD       N/A         49  39  68  SW3     29.93F
#MANASTASH CYN  N/A         53  53  100 CALM    29.82F
#NELSON 3SW     N/A         49  37  63  SE1     30.05F
#NILE           N/A         55  34  45  W3      29.12F
#TEANAWAY 4NE   N/A         55  40  57  W3      N/A
#TROUT LAKE 1NE N/A         48  38  68  SW5     29.93F
#TROUT LAKE 1E  N/A         49  40  71  SW1     29.94F
$$

WAZ521-252210-
SIMCOE HIGHLANDS

CITY            SKY/WX      TMP DP  RH  WIND    PRES   REMARKS
#BICKLETON HS   N/A         50  36  58  SW13    29.51F
#CENTERVILLE 1SWN/A         50  39  66  W9      29.89F
#GOLDENDALE 1NE N/A         52  27  38  SW3     N/A
#GOLDENDALE 4W  N/A         52  14  22  W14     29.96F
#GOODNOE HILLS  N/A         55  38  53  N17     N/A
#LYLE 6NE       N/A         50  40  68  N5      29.90F
#PITT 4SE       N/A         46  38  73  W6      29.97F
$$

WAZ026-252210-
KITTITAS VALLEY

CITY            SKY/WX      TMP DP  RH  WIND    PRES   REMARKS
ELLENSBURG AP   CLOUDY      61  37  41  S5      29.84F
#ELLENSBURG CWU N/A         58  36  44  SE5     29.77F
#ELLENSBURG 3NE N/A         56  39  53  CALM    27.92F
#ELLENSBURG 1E  N/A         60  N/A N/A CALM    N/A
#ELLENSBURG 13S N/A         58  34  40  SW7     N/A
#KITTITAS 4N    N/A         59  40  49  CALM    29.86F
#KITTITAS 3S    N/A         57  40  53  S3      29.82F
#THORP 6N       N/A         52  38  59  W7      29.87F
$$

WAZ027-252210-
YAKIMA VALLEY

CITY            SKY/WX      TMP DP  RH  WIND    PRES   REMARKS
SUNNYSIDE AP    CLOUDY      60  39  46  SW3     29.86F
YAKIMA AIRPORT  PTCLDY      62  38  41  SW9     29.86F
YAKIMA-VAGABOND MOSUNNY     59  36  42  SW8     29.83F
#DONALD 2NE     N/A         64   7  10  S13     28.70F
#GRANDVIEW      N/A         61  36  39  S3      29.87F
#MABTON         N/A         61  43  51  NW6     29.85F
#MOXEE 2E       N/A         58   0   9  S13     29.77F
#NACHES 2SW     N/A         58  40  51  SE3     29.87S
#TERRACE HTS    N/A         59  37  44  SW5     29.82F
#TOPPENISH      N/A         60  36  41  S6      29.78F
#WEST VALLEY    N/A         59  39  47  S6      29.83F
#W YAKIMA       N/A         60  40  47  SE3     29.85F
#WHITE SWAN 5E  N/A         61  41  48  SW2     29.85F
#WILEY CITY 3W  N/A         60  36  41  S2      29.81F
$$

WAZ028-252210-
LOWER COLUMBIA BASIN...WASHINGTON

CITY            SKY/WX      TMP DP  RH  WIND    PRES   REMARKS
HANFORD         CLOUDY      64  35  34  S12     29.86F
PASCO           CLOUDY      63  36  36  SW14    29.91S
PROSSER AWOS    N/A         63  37  38  S15     29.89F
RICHLAND AWOS   CLOUDY      64  36  35  S14     29.88F
#BENTON CITY    N/A         61  38  42  W5      29.78F
#CONNELL 5N     N/A         60  41  49  W5      29.88S
#CONNELL 5NW    N/A         58  39  49  S12     29.83F
#ELTOPIA 6NW    N/A         58  39  49  SW5     28.85F
#KAHLOTUS       N/A         57  40  53  W18G25  29.88F
#KENNEWICK 3S   N/A         60  39  46  NW6     29.91S
#PATERSON       N/A         58  39  49  NW15    29.88F
#SAGEMOOR 2W    N/A         58  43  57  SW13    29.75S
#TOUCHET 2S     N/A         60  42  51  CALM    29.89F
#WEST PASCO     N/A         63  42  46  S5      29.88F
$$

WAZ029-252210-
FOOTHILLS OF THE BLUES...WASHINGTON

CITY            SKY/WX      TMP DP  RH  WIND    PRES   REMARKS
WALLA WALLA AP  MOCLDY      57  40  53  S12     29.92S
#CLYDE 6NW      N/A         55  38  53  SW13G24 29.88F
#DAYTON SCHOOL  N/A         55  35  47  S6      29.93F
#LOWDEN 2SE     N/A         61  46  58  S7      29.87F
#PLEASANT VIEW 1N/A         55  41  59  SE15    29.92F
#PRESCOTT       N/A         58  42  55  W5      29.90F
#WHITMAN COLLEGEN/A         56  40  55  S2      29.97F
#WAITSBURG 5S   N/A         54  44  69  S7      30.01F
#WAITSBURG 8N   N/A         55  N/A N/A S22     29.65F
#WALLA WALLA 5E N/A         57  42  57  SW9     N/A
#WHITMAN MISSIONN/A         59  44  57  S2      29.91F
$$

WAZ030-252210-
BLUE MOUNTAINS...WASHINGTON

CITY            SKY/WX      TMP DP  RH  WIND    PRES   REMARKS
#DIXIE 5SE      N/A         47  38  71  SW9     29.84S
$$

ORZ009-041-WAZ024-252210-
COLUMBIA RIVER GORGE

CITY            SKY/WX      TMP DP  RH  WIND    PRES   REMARKS
HOOD RIVER AP   MOCLDY      55  41  59  N8      29.93F
THE DALLES AP   PTCLDY      58  40  51  NW7     29.93F
#ARLINGTON AIRPON/A         57  40  53  W13     29.92F
#CELILO DOT     N/A         60  35  39  SW3     N/A
#LYLE           N/A         57  43  59  W3      29.94F
#MOSIER 1S      N/A         56  30  37  CALM    29.91F
#MURDOCK        N/A         57  42  57  NW3     29.89F
#RUFUS DOT      N/A         59  37  44  W10     N/A
#SMITHVILLE     N/A         57  43  59  W7      29.88F

$$

ORZ510-252210-
NORTH CENTRAL OREGON

CITY            SKY/WX      TMP DP  RH  WIND    PRES   REMARKS
#ANTELOPE       N/A         50  30  46  SW8     29.83R
#CHENOWITH 1W   N/A         49  39  68  NW9     N/A
#COW CYN RST AREN/A         47  32  56  SW8     N/A
#DUFUR          N/A         51  40  66  E2      29.89F
#DUFUR 9E       N/A         47  41  79  W1      29.99F
#GRASS VALLEY 1SN/A         51  37  59  W8      30.06F
#KENT DOT       N/A         49  24  37  N14     N/A    WCI 44
#MAUPIN SCHOOL  N/A         57  39  51  W2      29.95F
#MORO SCHOOL    N/A         51  45  80  N5      29.99F
#SHANIKO 5WSW   N/A         46  26  45  N15     N/A    WCI 40
#SHANIKO 4NW    N/A         46  33  60  W12     29.91R WCI 40
#TYGH VALLEY 2NEN/A         55  41  59  N6      29.92F
#WAPANITIA AIRPON/A         52  38  59  N5      29.95F
#WASCO 5NE      N/A         53  39  59  W6      29.91F
$$

ORZ511-252210-
CENTRAL OREGON

CITY            SKY/WX      TMP DP  RH  WIND    PRES   REMARKS
BEND AIRPORT    LGT DRIZZLE 46  32  58  SW10    29.93R
MADRAS AIRPORT  CLOUDY      52  30  43  S5      29.94S
PRINEVILLE AP   PTCLDY      50  28  42  SW15    29.92R
REDMOND AIRPORT CLOUDY      50  27  41  S13     29.92S
#ASHWOOD SCHOOL N/A         52  30  43  SW7     29.88S
#BEND 1SW       N/A         46  35  65  S1      N/A
#BEND-AWBREY    N/A         47  35  63  NE7     29.96S
#BEND-KIM LN    N/A         50  32  50  E2      29.91S
#CULVER         N/A         51  31  46  W2      29.86F
#CULVER 8W      N/A         53  31  43  CALM    29.91F
#LAKE BILLY CHINN/A         51  N/A N/A W3      30.00S
#MADRAS 4S      N/A         52  10  18  SW1     N/A
#POWELL BUTTE   N/A         49  27  42  W12     29.89R WCI 44
#PRINEVILLE     N/A         52  31  44  SW1     30.03R
#PRINEVILLE 3N  N/A         52  34  50  W2      29.94S
#WARM SPRINGS   N/A         56  35  45  CALM    29.88F

$$


ORZ509-252210-
EAST SLOPES OF OREGON CASCADES

CITY            SKY/WX      TMP DP  RH  WIND    PRES   REMARKS
SISTERS AWOS    N/A         48  30  49  CALM    29.90S
#BLUE BOX PASS  N/A         37  N/A N/A CALM    N/A
#CAMP SHERMAN   N/A         48  34  58  SW2     29.99F
#LA PINE 4NW    N/A         40  33  76  SW1     30.02S
#LAVA BUTTE DOT N/A         43  25  49  SW1     N/A
#SISTERS 3N     N/A         50  32  50  CALM    29.94S
#TUMALO 3W      N/A         47  32  56  NE1     29.84S
#WANOGA BUTTE D N/A         32  30  92  W8      N/A

$$

ORZ044-252210-
LOWER COLUMBIA BASIN...OREGON

CITY            SKY/WX      TMP DP  RH  WIND    PRES   REMARKS
HERMISTON       CLOUDY      61  40  46  SW8     29.90F
#BOARDMAN SCHOOLN/A         59  39  47  W9      29.90F
#BOARDMAN 8SW   N/A         58  42  55  W12     29.89F
#ECHO 8SW       N/A         59  42  53  W3      29.91F
#I-84 EX 198 DOTN/A         59  37  44  NE1     N/A
#IONE SCHOOL    N/A         58  39  49  W8      29.91F
#UMATILLA       N/A         61  39  44  W7      29.84S
$$

ORZ507-252210-
NORTHERN FOOTHILLS OF THE BLUES

CITY            SKY/WX      TMP DP  RH  WIND    PRES   REMARKS
PENDLETON AIRPT PTCLDY      57  42  57  E6      29.90F
#ADAMS 3WNW     N/A         55  42  61  CALM    29.91F
#ATHENA         N/A         55  39  55  SE3     29.95F
#CAYUSE         N/A         56  41  57  S3      29.91F
#HELIX SCHOOL   N/A         55  41  59  W7      29.91
#HELIX 3N       N/A         54  40  59  S10     29.88F
#HOLDMAN 5SE    N/A         59  41  51  SW5     29.89F
#HOLDMAN 6E     N/A         56  41  57  SW8     29.72S
#M-F FERNDALE   N/A         59  40  49  CALM    29.89F
#M-F GROVE ELEM N/A         58  36  44  SW1     29.89F
#M-FREEWATER 5SEN/A         58  41  53  CALM    29.91F
#PENDLETON DNTN N/A         61  37  41  S5      29.89F
#PDT AQUATIC CTRN/A         59  41  51  CALM    29.93S
#PDT SUNRIDGE   N/A         59  41  51  E1      29.91F
#PENDLETON 7NW  N/A         60  43  53  CALM    31.51S
#PILOT ROCK 1S  N/A         57  38  49  CALM    29.91F
#PILOT ROCK     N/A         60  43  53  CALM    29.92F
#TUTUILLA       N/A         60  43  53  CALM    29.91F
#UMAPINE 2E     N/A         59  45  60  S6      29.88F
#WESTON SCHOOL  N/A         53  37  54  CALM    29.88F

$$

ORZ508-252210-
SOUTHERN FOOTHILLS OF THE BLUES

CITY            SKY/WX      TMP DP  RH  WIND    PRES   REMARKS
LEXINGTON       PTCLDY      59  37  44  NW14    29.92F
#AJAX           N/A         52  30  43  S8      30.06S
#CONDON SCHOOL  N/A          0  -78  1  CALM    29.86F
#CONDON 5W      N/A         49  31  50  S8      29.87F
#HEPPNER EOC    N/A         54  38  55  NW6     29.84S
#LEXINGTON 2SE  N/A         58  40  51  NW9     29.86S
#MIKKALO        N/A         56  33  42  W8      30.00F
#RUGGS 5NE      N/A         53  33  46  W2      30.07S
#RUGGS 2SW      N/A         54  34  47  NW2     29.93S

$$

ORZ502-503-252210-
BLUE MOUNTAINS

CITY            SKY/WX      TMP DP  RH  WIND    PRES   REMARKS
MEACHAM         CLOUDY      48  32  54  VRB3    29.90F
#BATTLE MTN DOT N/A         45  27  49  SE2     N/A
#HARDMAN 10S    N/A         46  33  60  W9      30.07S
#LADD CYN SMT   N/A         43  38  82  NW6     N/A
#LADD CREEK ODOTN/A         45  40  82  SW2     N/A
#LONG CREEK HS  N/A         47  36  65  CALM    N/A
#N POWDER DOT   N/A         49  38  66  N12     N/A    WCI 44
#PIKES PEAK     N/A         43  36  76  N9      27.99S
#TOLLGATE       N/A         36  35  96  SW1     29.78S
#TROY SCHOOL    N/A         61  41  48  S6      29.73F
#UKIAH          N/A         50  37  61  SE7     29.84S
#WESTON 4E      N/A         47  38  71  SE6     29.92S
$$

ORZ505-252210-
JOHN DAY BASIN

CITY            SKY/WX      TMP DP  RH  WIND    PRES   REMARKS
JOHN DAY        PTCLDY      52  34  50  W3      29.92S
#ANTELOPE 9ESE  N/A         58  34  40  CALM    N/A
#DAYVILLE SCHOOLN/A         59  30  33  SW3     29.87F
#MITCHELL       N/A         53  36  52  CALM    30.07R
#MITCHELL 8NW   N/A         49  32  52  W1      29.96R
#MONUMENT HS    N/A         58  34  40  CALM    29.87F
#MT. VERNON 5SE N/A         49  33  54  S1      29.86S
#SPRAY SCHOOL   N/A         59  N/A N/A CALM    N/A
$$

ORZ506-252210-
OCHOCO AND JOHN DAY HIGHLANDS

CITY            SKY/WX      TMP DP  RH  WIND    PRES   REMARKS
#HORSE RIDGE DO N/A         47  20  34  S3      N/A
#PAULINA ODOT   N/A         50  28  42  SW8     N/A
#PINE MTN OBS   N/A         35  26  69  SE5     N/A
#PRAIRIE CITY   N/A         51  33  50  CALM    30.07F
#SENECA 9NW     N/A         45  32  60  CALM    29.95S
$$

ORZ049-252210-
GRANDE RONDE VALLEY

CITY            SKY/WX      TMP DP  RH  WIND    PRES   REMARKS
LA GRANDE       CLOUDY      48  39  71  S5      29.91S
#COVE           N/A         50  43  77  CALM    29.95F
#COVE SCHOOL    N/A         50  39  66  CALM    29.94S
#COVE 6NW       N/A         50  39  66  CALM    29.94S
#ELGIN 3N       N/A         51  36  56  CALM    29.89F
#ELGIN 1E       N/A         51  38  61  CALM    N/A
#IMBLER SCHOOL  N/A         49  37  63  CALM    29.88F
#ISLAND CITY 4N N/A         52  48  86  S2      29.93F
#UNION 1S       N/A         49  40  71  SW1     29.94R
$$

ORZ050-252210-
WALLOWA COUNTY

CITY            SKY/WX      TMP DP  RH  WIND    PRES   REMARKS
JOSEPH AIRPORT  CLOUDY      41  36  82  N5      29.91S
#IMNAHA SCHOOL  N/A         58  41  53  NW7     29.88F
#IMNAHA 10S     N/A         47  41  79  SW7     29.90R
#JOSEPH 3N      N/A         42  34  73  NW10    29.94F
#JOSEPH 3W      N/A         41  38  89  N2      29.76S
#LOSTINE        N/A         44  39  82  CALM    29.74F
#LOSTINE 3SE    N/A         43  38  82  SW1     29.95F
#MT HOWARD 8000 N/A         30  28  92  CALM    29.85F
#PROMISE 1S     N/A         47  37  68  SW3     30.00F
#WALLOWA SCHOOL N/A         49  38  66  N1      29.88F



$$



USA.gov is the U.S. government's official web portal to all federal, state and local government web resources and services.